STARLINK-32909, 62894

Orbit data source: Space-Track

STARLINK-32909, 62894 is a payload satellite owned by SpaceX/Seattle (US) in LEO that was launched on Tue, 04 Feb 2025 UTC via an FALCON 9 launch vehicle from the Air Force Eastern Test Range (AFETR). Payload-class satellites include a variety of spacecraft equipped with specific instruments for various scientific and technological missions. These include communications satellites like Starlink; space stations such as the ISS; scientific satellites like the Hubble; Earth observation satellites from companies like Planet Labs, Umbra, and HawkEye 360; GPS; miniature CubeSats for education and research; and military/defense satellites.

Loading next visibility...
Identifier
62894, 2025-024R
Orbit
LEO
Country
Flag of USUS
Related business
Manufacturer
SpaceX/Seattle
Mission
Operational Commercial Communications
Bus & Motor
STARLINK V2M, Unknown motor
Mass
730 kg wet, ~700 kg dry
Launch date (UTC)
2025-02-04 (1 year ago)
Launch vehicle
FALCON 9
Launch site
Air Force Eastern Test Range (AFETR)
Object type
Payload
Rocket body
Debris
Shape & HBR
Box + 2 Pan, 17.7 m
Radar Cross Section
33.884 m², Large (>1 m²)

Expand to show TLE details & history
Last TLE update: 18 hours ago

TLE from 18 hours ago
0 STARLINK-32909
1 62894U 25024R   26171.22069182  .00008750  00000-0  32696-3 0  9998
2 62894  43.0030 106.5884 0001443 268.6801  91.3886 15.27595441 77941
Epoch: 2026-06-20T05:17Z
TLE epoch observation values (Epoch: 2026-06-20T05:17:47.773Z)
Latitude
0.00003°
Longitude
118.70095°
Altitude
482.803 km
Speed
7.626 km/s
True Right ascension
07h 06m 21s
True Declination
0° 00' 00"
Sunlit
Object was in daylight at epoch
Visualization orbit readout
Latitude
Unknown
Longitude
Unknown
Altitude
Unknown
Speed
Unknown
Apparent Right ascension
Unknown
Apparent Declination
Unknown
Sunlit
N/A
Visualization observer readout
Local Sidereal Time
10:18:39
Azimuth
Unknown
Elevation
Unknown
Doppler factor
Unknown
Orbital elements
Apogee altitude
485.938 km
Perigee altitude
483.957 km
Semi-major axis
6,863.085 km
Eccentricity
0.00014
Inclination
43.003°
RAAN
106.5884°
Arg. of periapsis
268.6801°
True anomaly
91.40513°
Mean anomaly
91.3886°
Eccentric anomaly
91.39687°
Mean motion
3.81737 °/min
Orbital period
94.31 mins
BSTAR
0.00032696
Loading maneuver chart data...
Computing Atmospheric mass density...
Loading historical data...
Loading historical data...
Loading historical data...
Loading historical data...
Loading historical data...
Loading historical data...
Loading historical data...

Documentation

Showing up to 5 results
|